Regional Weather Roundup
Issued by NWS

Home | Current Version | Previous Version | Graphics & Text | Print | Product List | Glossary On
Versions: 1 2 3 4 5 6 7 8 9 10 11 12 13 14 15 16 17 18 19 20 21 22 23 24 25 26 27 28 29 30 31 32 33 34 35 36 37 38 39 40 41 42 43 44 45 46 47 48 49 50
000
ASUS43 KDTX 250401
RWRMI
MICHIGAN HOURLY REGIONAL WEATHER ROUNDUP
NATIONAL WEATHER SERVICE DETROIT/PONTIAC MI
1200 AM EDT SUN JUN 25 2017

NOTE: "FAIR" INDICATES FEW OR NO CLOUDS BELOW 12,000 FEET WITH NO
SIGNIFICANT WEATHER AND/OR OBSTRUCTION TO VISIBILITY.

MIZ047>049-052>055-059>063-066>070-074>076-081>083-250500-
SOUTHEAST LOWER MICHIGAN

CITY           SKY/WX    TMP DP  RH WIND       PRES   REMARKS
ADRIAN         CLEAR     58  50  75 CALM      30.04S
ALMA           CLEAR     58  47  66 SW5       29.99S
ANN ARBOR      MOCLDY    52  50  93 SW3       30.02R
BAD AXE        CLEAR     56  54  91 CALM      29.96R
CARO           CLEAR     54  54 100 CALM      29.97R FOG
DETROIT CITY   CLEAR     65  47  52 W8        30.00R
DETROIT        PTCLDY    64  49  57 SW7       30.02S
FLINT          MOCLDY    59  47  64 SW6       29.99R
GROSSE ILE     CLEAR     64  49  59 W5        30.01S
HILLSDALE      CLEAR     55  46  71 CALM      30.04R
HOWELL         CLOUDY    61  46  58 SW5       30.01S

CITY           SKY/WX    TMP DP  RH WIND       PRES   REMARKS
JACKSON        CLOUDY    59  49  69 SW5       30.03R
LAMBERTVILLE   CLEAR     59  50  73 CALM      30.02F
LANSING        CLOUDY    63  45  51 W8        30.01R
LAPEER         FAIR      61  48  61 W6        29.99R
MASON          CLOUDY    63  48  59 SW3       30.01S
MONROE         CLEAR     60  50  70 W5        30.02S
MT. CLEMENS    CLEAR     63  49  59 W7        29.98R
PONTIAC        PTCLDY    61  49  64 SW6       29.99R
PORT HOPE        N/A     61  54  77 W5        29.92S
PORT HURON     CLEAR     57  54  88 CALM      29.98S
TRI CITIES     PTCLDY    60  53  77 SW5       29.98R
MIDLAND        MOCLDY    55  53  95 CALM      29.96S
TROY           CLEAR     64  45  48 SW5       30.02S
SAGINAW HB     CLEAR     57  48  72 SW7       29.97R
$$
MIZ043>046-050>051-056>058-064>065-071>073-077>080-250500-
SOUTHWEST LOWER MICHIGAN

CITY           SKY/WX    TMP DP  RH WIND       PRES   REMARKS
BATTLE CREEK   PTCLDY    56  49  77 SW7       30.04R
BENTON HARBOR  CLOUDY    64  50  60 W8        30.04S
BIG RAPIDS     CLEAR     57  47  70 SW6       29.96F
COLDWATER      PTCLDY    60  48  63 W7        30.04S
FREMONT        FAIR      55  50  83 S5        29.98S
HOLLAND        CLEAR     56  51  84 SW3       30.01F
GRAND RAPIDS   PTCLDY    60  51  72 SW8       30.00S
IONIA          FAIR      59  47  65 SW7       30.00S
KALAMAZOO      CLEAR     59  47  64 SW6       30.04S
LUDINGTON      CLOUDY    62  51  69 W5        29.94F
MARSHALL       CLEAR     56  48  72 CALM      30.03S
MOUNT PLEASANT PTCLDY    57  48  70 SW5       29.96F
MUSKEGON       CLEAR     62  50  64 W7        29.99S
SOUTH HAVEN    MOCLDY    65  53  65 W5        30.03S
$$
MIZ016>042-250500-
NORTHERN LOWER MICHIGAN

CITY           SKY/WX    TMP DP  RH WIND       PRES   REMARKS
ALPENA         LGT RAIN  57  56  96 CALM      29.92F
BELLAIRE       MOCLDY    56  54  92 CALM      29.93S
CADILLAC       CLEAR     51  49  94 SW5       29.95S
CHARLEVOIX     CLOUDY    58  58 100 W3        29.95F
FRANKFORT      PTCLDY    54  51  90 CALM      29.94S
GAYLORD        PTCLDY    56  52  86 W3        29.94S
GRAYLING       CLEAR     53  52  96 SW3       29.95S
HARBOR SPRINGS CLOUDY    57  57 100 W5        29.93S
HOUGHTON LAKE  CLEAR     59  52  77 W6        29.95F
MANISTEE       PTCLDY    54  53  97 CALM      29.94S
OSCODA         CLOUDY    57  56  95 SW7       29.93S
PELLSTON       CLOUDY    57  54  89 W5        29.92F
ROGERS CITY    CLOUDY    58  55  90 SW7       29.93S
TRAVERSE CITY  MOCLDY    59  55  87 SW5       29.92F
$$
MIZ007>008-015-250500-
EASTERN UPPER MICHIGAN

CITY           SKY/WX    TMP DP  RH WIND       PRES   REMARKS
KINROSS        CLOUDY    53  46  77 W6        29.90S
MACKINAC ISLAN CLOUDY    56  51  84 CALM      29.91S
NEWBERRY       LGT RAIN  52  51  97 CALM      29.91F
S. S. MARIE    CLOUDY    53  46  77 W5        29.89S
MUNISING         N/A     53  52  96 E5        29.92F
$$
MIZ004>006-011>014-085-250500-
CENTRAL UPPER MICHIGAN

CITY           SKY/WX    TMP DP  RH WIND       PRES   REMARKS
MANISTIQUE     DRIZZLE   54  50  89 NE5       29.92F
ESCANABA       CLOUDY    55  54  96 NW5       29.93F
MENOMINEE      PTCLDY    54  52  93 CALM      29.94F
SAWYER-GWINN   LGT RAIN  52  50  93 CALM      29.94S
$$
MIZ001>003-009>011-084-250500-
WESTERN UPPER MICHIGAN

CITY           SKY/WX    TMP DP  RH WIND       PRES   REMARKS
IRON MOUNTAIN  LGT RAIN  53  50  89 W5        29.93S
HOUGHTON       FOG       51  49  92 NW7       29.92S VSB 1/4
COPPER HARBOR    N/A     50  50 100 CALM      29.92S
IRONWOOD       LGT RAIN  53  51  93 W9        29.96S
$$

ABBREVIATIONS USED IN REMARKS
   TC - TEMPERATURE IN CELSIUS
  WCI - WIND CHILL INDEX
   HX - HEAT INDEX
  VSB - VISIBILITY




USA.gov is the U.S. government's official web portal to all federal, state and local government web resources and services.